TOURFACTS.DK  
Stats and Facts from Tour de France.

Tour de France 2019 starts in 320 days
  Riders   Stages   Teams   Summits   Yearly  


 
Search by year

After 2018 - Stage 21:
 15000 starters.
  5165 different riders.
  638 teams.
  2253 stages.
  456 restdays.
  442940.60 km.
  5684 abandonnees.


Top 3
GC
Geraint Thomas83:17:13
Tom Dumoulin83:19:04
Christopher Froome83:19:37
Climb
Julian Alaphilippe170 pt.
Warren Barguil91 pt.
Rafal Majka76 pt.
Sprint
Peter Sagan477 pt.
Alexander Kristoff246 pt.
Arnaud Démare203 pt.
Youth
Pierre-Roger Latou..83:39:26
Egan Bernal83:45:05
Guillaume Martin84:01:31
Facts from Tour de France 2016
  |   Stages.  |   Stage winners.  |   Days in yellow  |   Average speed.  |   Route.  |   Teams.  |   All riders.  |   Rookies.  |  

  |   Withdrawls.  |   GC.  |   Polka  |   Green  |   White  |   Summits. (In tour)  |   Miscellaneous.  |  

Stage 19 on 22 - 07 - 2016
         Owning:    Christopher Froome      Rafal Majka      Peter Sagan      Adam Yates  

Pick a stage:  1 2 3 4 5 6 7 8 9 10 11 12 13 14 15 16 17 18 19 20 21
  AlbertvilleSaint-Gervais Mont Blanc | Dist: 146.00 km.
Cat: 1Col de la Forclaz de MontminBELThomas De Gendt10 points 
Cat: 2Col de la Forclaz de QueigeBELThomas De Gendt5 points 
Cat: HMontée de BisannePOLRafal Majka25 points 
Cat: 1Cret Bettex - Le FayetFRARomain Bardet20 points 

Average speed for all riders in stage:  31,789 km./hr.
    Place:Name:Team:Time:Km/h:
1
FRARomain BardetFRAAg2r La Mondiale04:14:08  +  00:00:00=34,470 
2
ESPJoaquim RodriguezRUSTeam Katusha04:14:31  +  00:00:23=34,418 
3
ESPAlejandro ValverdeESPMovistar Team04:14:31  +  00:00:23=34,418 
44 RSALouis MeintjesITALampre-Merida04:14:31  +  00:00:23=34,418 
55 COLNairo QuintanaESPMovistar Team04:14:34  +  00:00:26=34,411 
66 ITAFabio AruKAZAstana Pro Team04:14:36  +  00:00:28=34,407 
77 ENGDaniel MartinBELEtixx - Quick Step04:14:36  +  00:00:28=34,407 
88 NEDWout PoelsGBRSky Procycling04:14:44  +  00:00:36=34,389 
99 KENChristopher FroomeGBRSky Procycling04:14:44  +  00:00:36=34,389 
1010 AUSRichie PorteUSABMC Racing Team04:15:01  +  00:00:53=34,351 
1111 ESPJon Izaguirre InsaustiESPMovistar Team04:15:01  +  00:00:53=34,351 
1212 ESPMikel Landa MeanaGBRSky Procycling04:15:01  +  00:00:53=34,351 
1313 ENGAdam YatesAUSORICA BikeExchange04:15:04  +  00:00:56=34,344 
1414 FRAWarren BarguilDEUTeam Giant Alpecin04:15:25  +  00:01:17=34,297 
1515 PORRui CostaITALampre-Merida04:16:00  +  00:01:52=34,219 
1616 COLSergio Luis HenaoGBRSky Procycling04:16:05  +  00:01:57=34,208 
1717 CZERoman KreuzigerRUSTinkoff04:16:06  +  00:01:58=34,205 
1818 ITADamiano CarusoUSABMC Racing Team04:17:08  +  00:03:00=34,068 
1919 NEDStef ClementCHEIAM Cycling04:17:18  +  00:03:10=34,046 
2020 COLJarlinson Pantano GomezCHEIAM Cycling04:18:00  +  00:03:52=33,953 
2121 ITADiego RosaKAZAstana Pro Team04:18:00  +  00:03:52=33,953 
2222 FRAAlexis VuillermozFRAAg2r La Mondiale04:18:00  +  00:03:52=33,953 
2323 NEDBauke MollemaUSATrek - Segafredo04:18:34  +  00:04:26=33,879 
2424 GEREmanuel BuchmannDEUBora-Argon 1804:18:50  +  00:04:42=33,844 
2525 ESPDaniel MorenoESPMovistar Team04:18:57  +  00:04:49=33,829 
2626 FRACyril GautierFRAAg2r La Mondiale04:20:16  +  00:06:08=33,658 
2727 POLRafal MajkaRUSTinkoff04:20:21  +  00:06:13=33,647 
2828 WALGeraint ThomasGBRSky Procycling04:20:41  +  00:06:33=33,604 
2929 ESPHaimar ZubeldiaUSATrek - Segafredo04:20:41  +  00:06:33=33,604 
3030 SUIJakob FuglsangKAZAstana Pro Team04:20:41  +  00:06:33=33,604 
3131 FRATony GallopinBELLotto Soudal04:21:57  +  00:07:49=33,441 
3232 FRAPierre RollandUSATeam Cannondale Drapac04:22:02  +  00:07:54=33,431 
3333 FRAMickaël CherelFRAAg2r La Mondiale04:22:28  +  00:08:20=33,376 
3434 ESPMikel NieveGBRSky Procycling04:22:51  +  00:08:43=33,327 
3535 RSADaryl ImpeyAUSORICA BikeExchange04:23:11  +  00:09:03=33,285 
3636 URSTanel KangertKAZAstana Pro Team04:23:15  +  00:09:07=33,276 
3737 SUISébastien ReichenbachFRAFDJ04:23:41  +  00:09:33=33,222 
3838 FRAAmaël MoinardUSABMC Racing Team04:25:12  +  00:11:04=33,032 
3939 RUSIlnur ZakarinRUSTeam Katusha04:25:51  +  00:11:43=32,951 
4040 KAZAlexey LutsenkoKAZAstana Pro Team04:25:51  +  00:11:43=32,951 
4141 ITAVincenzo NibaliKAZAstana Pro Team04:25:51  +  00:11:43=32,951 
4242 HRVRobert KiserlovskiRUSTinkoff04:25:51  +  00:11:43=32,951 
4343 HRVKristijan DurasekITALampre-Merida04:25:51  +  00:11:43=32,951 
4444 ARGEduardo SepulvedaFRAFortuneo - Vital Concept04:25:51  +  00:11:43=32,951 
4545 USAPeter StetinaUSATrek - Segafredo04:26:01  +  00:11:53=32,930 
4646 SUISteve MorabitoFRAFDJ04:26:42  +  00:12:34=32,846 
4747 FRARomain SicardFRADirect Energie04:27:21  +  00:13:13=32,766 
4848 FRAFabrice JeandesbozFRADirect Energie04:27:21  +  00:13:13=32,766 
4949 ESPAlberto LosadaRUSTeam Katusha04:27:38  +  00:13:30=32,731 
5050 BLRVasil KiryienkaGBRSky Procycling04:27:44  +  00:13:36=32,719 
5151 GERMarcus BurghardtUSABMC Racing Team04:28:37  +  00:14:29=32,612 
5252 SUIMichael SchärUSABMC Racing Team04:28:37  +  00:14:29=32,612 
5353 BELGreg Van AvermaetUSABMC Racing Team04:28:37  +  00:14:29=32,612 
5454 SLOJan PolancITALampre-Merida04:28:37  +  00:14:29=32,612 
5555 NZLGeorge BennettNLDTeam Lotto NL - Jumbo04:29:10  +  00:15:02=32,545 
5656 BELThomas De GendtBELLotto Soudal04:30:58  +  00:16:50=32,329 
5757 LUXFränk SchleckUSATrek - Segafredo04:31:38  +  00:17:30=32,249 
5858 SUIMartin ElmigerCHEIAM Cycling04:31:38  +  00:17:30=32,249 
5959 FRASylvain ChavanelFRADirect Energie04:31:38  +  00:17:30=32,249 
6060 NEDBert-Jan LindemanNLDTeam Lotto NL - Jumbo04:32:09  +  00:18:01=32,188 
6161 AUSMichael MatthewsAUSORICA BikeExchange04:32:40  +  00:18:32=32,127 
6262 NEDWilco KeldermanNLDTeam Lotto NL - Jumbo04:32:40  +  00:18:32=32,127 
6363 ESPLuis León SánchezKAZAstana Pro Team04:33:42  +  00:19:34=32,006 
6464 FRAArnold JeannessonFRACofidis – Solutions Crédits04:34:05  +  00:19:57=31,961 
6565 NEDDylan Van BaarleUSATeam Cannondale Drapac04:34:05  +  00:19:57=31,961 
6666 ERINatnael Teweldemedhin BerhaneZAFDimension Data04:34:05  +  00:19:57=31,961 
6767 LUXBen GastauerFRAAg2r La Mondiale04:34:05  +  00:19:57=31,961 
6868 AUTGeorg PreidlerDEUTeam Giant Alpecin04:34:05  +  00:19:57=31,961 
6969 DENMichael ValgrenRUSTinkoff04:34:05  +  00:19:57=31,961 
7070 ERIDaniel TeklehaimanotZAFDimension Data04:34:05  +  00:19:57=31,961 
7171 FRAJérôme CoppelCHEIAM Cycling04:34:05  +  00:19:57=31,961 
7272 FRAJérôme CousinFRACofidis – Solutions Crédits04:34:05  +  00:19:57=31,961 
7373 PORNelson OliveiraESPMovistar Team04:35:23  +  00:21:15=31,810 
7474 COLWinner AnaconaESPMovistar Team04:35:23  +  00:21:15=31,810 
7575 ESPRubén PlazaAUSORICA BikeExchange04:35:23  +  00:21:15=31,810 
7676 FRAAnthony DelaplaceFRAFortuneo - Vital Concept04:36:05  +  00:21:57=31,730 
7777 CANAntoine DuchesneFRADirect Energie04:37:01  +  00:22:53=31,623 
7878 FRAThomas VoecklerFRADirect Energie04:37:01  +  00:22:53=31,623 
7979 CZEPetr VakocBELEtixx - Quick Step04:37:08  +  00:23:00=31,609 
8080 BELJulien VermoteBELEtixx - Quick Step04:37:11  +  00:23:03=31,604 
8181 GERTony MartinBELEtixx - Quick Step04:37:11  +  00:23:03=31,604 
8282 FRA Alexis GougeardFRAAg2r La Mondiale04:37:54  +  00:23:46=31,522 
8383 FRAJulian AlaphilippeBELEtixx - Quick Step04:37:54  +  00:23:46=31,522 
8484 FRABryan CoquardFRADirect Energie04:37:54  +  00:23:46=31,522 
8585 ITAPaolo TiralongoKAZAstana Pro Team04:37:54  +  00:23:46=31,522 
8686 NEDLaurens ten DamDEUTeam Giant Alpecin04:38:55  +  00:24:47=31,407 
8787 GERSimon GeschkeDEUTeam Giant Alpecin04:39:26  +  00:25:18=31,349 
8888 ESPImanol ErvitiESPMovistar Team04:39:26  +  00:25:18=31,349 
8989 POLBartosz HuzarskiDEUBora-Argon 1804:41:46  +  00:27:38=31,090 
9090 ITACesare BenedettiDEUBora-Argon 1804:41:46  +  00:27:38=31,090 
9191 NEDTom-Jelte SlagterUSATeam Cannondale Drapac04:41:46  +  00:27:38=31,090 
9292 CZEJan BártaDEUBora-Argon 1804:41:46  +  00:27:38=31,090 
9393 ESPLuis Angel MateFRACofidis – Solutions Crédits04:41:46  +  00:27:38=31,090 
9494 SUIReto HollensteinCHEIAM Cycling04:41:46  +  00:27:38=31,090 
9595 FRAPierre-Luc PérichonFRAFortuneo - Vital Concept04:41:46  +  00:27:38=31,090 
9696 GERPaul VossDEUBora-Argon 1804:41:46  +  00:27:38=31,090 
9797 BELJan BakelantsFRAAg2r La Mondiale04:41:46  +  00:27:38=31,090 
9898 FRASamuel DumoulinFRAAg2r La Mondiale04:41:46  +  00:27:38=31,090 
9999 GERPaul MartensNLDTeam Lotto NL - Jumbo04:41:46  +  00:27:38=31,090 
100100 FRAWilliam BonnetFRAFDJ04:41:46  +  00:27:38=31,090 
101101 BELOliver NaesenCHEIAM Cycling04:41:46  +  00:27:38=31,090 
102102 NORSondre Holst EngerCHEIAM Cycling04:44:04  +  00:29:56=30,838 
103103 NORVegard BreenFRAFortuneo - Vital Concept04:44:04  +  00:29:56=30,838 
104104 ENGIan StannardGBRSky Procycling04:44:04  +  00:29:56=30,838 
105105 WALLuke RoweGBRSky Procycling04:44:04  +  00:29:56=30,838 
106106 FRAFlorian VachonFRAFortuneo - Vital Concept04:44:04  +  00:29:56=30,838 
107107 AUSLeigh HowardCHEIAM Cycling04:45:36  +  00:31:28=30,672 
108108 AUSAdam HansenBELLotto Soudal04:45:36  +  00:31:28=30,672 
109109 BELSep VanmarckeNLDTeam Lotto NL - Jumbo04:45:36  +  00:31:28=30,672 
110110 BELJürgen RoelandtsBELLotto Soudal04:45:36  +  00:31:28=30,672 
111111 ITAFabio SabatiniBELEtixx - Quick Step04:45:36  +  00:31:28=30,672 
112112 DENChris Anker SørensenFRAFortuneo - Vital Concept04:45:36  +  00:31:28=30,672 
113113 ITAOscar GattoRUSTinkoff04:45:36  +  00:31:28=30,672 
114114 ITAMatteo TosattoRUSTinkoff04:45:36  +  00:31:28=30,672 
115115 NEDTimo RoosenNLDTeam Lotto NL - Jumbo04:45:36  +  00:31:28=30,672 
116116 SLOKristjan KorenUSATeam Cannondale Drapac04:45:36  +  00:31:28=30,672 
117117 FRAGeoffrey SoupeFRACofidis – Solutions Crédits04:45:36  +  00:31:28=30,672 
118118 GERRobert WagnerNLDTeam Lotto NL - Jumbo04:45:36  +  00:31:28=30,672 
119119 FRAChristophe LaporteFRACofidis – Solutions Crédits04:45:36  +  00:31:28=30,672 
120120 BELIljo KeisseBELEtixx - Quick Step04:45:36  +  00:31:28=30,672 
121121 USABrent BookwalterUSABMC Racing Team04:45:36  +  00:31:28=30,672 
122122 USATejay Van GarderenUSABMC Racing Team04:45:36  +  00:31:28=30,672 
123123 AUTPatrick KonradDEUBora-Argon 1804:45:36  +  00:31:28=30,672 
124124 SUIGregory RastUSATrek - Segafredo04:45:36  +  00:31:28=30,672 
125125 SUIMichael AlbasiniAUSORICA BikeExchange04:45:36  +  00:31:28=30,672 
126126 NEDRamon SinkeldamDEUTeam Giant Alpecin04:45:36  +  00:31:28=30,672 
127127 NEDAlbert TimmerDEUTeam Giant Alpecin04:45:36  +  00:31:28=30,672 
128128 ITAMatteo BonoITALampre-Merida04:45:36  +  00:31:28=30,672 
129129 AUSMathew HaymanAUSORICA BikeExchange04:45:36  +  00:31:28=30,672 
130130 SLOLuka PibernikITALampre-Merida04:45:36  +  00:31:28=30,672 
131131 ETHTsgabu Gebremaryan GrmayITALampre-Merida04:45:36  +  00:31:28=30,672 
132132 USALawson CraddockUSATeam Cannondale Drapac04:45:36  +  00:31:28=30,672 
133133 GERMarcel KittelBELEtixx - Quick Step04:45:36  +  00:31:28=30,672 
134134 FRANicolas EdetFRACofidis – Solutions Crédits04:45:36  +  00:31:28=30,672 
135135 BELJasper StuyvenUSATrek - Segafredo04:45:36  +  00:31:28=30,672 
136136 BELSerge PauwelsZAFDimension Data04:45:36  +  00:31:28=30,672 
137137 NORAlexander KristoffRUSTeam Katusha04:45:36  +  00:31:28=30,672 
138138 AUSLuke DurbridgeAUSORICA BikeExchange04:45:36  +  00:31:28=30,672 
139139 USAAlex HowesUSATeam Cannondale Drapac04:45:36  +  00:31:28=30,672 
140140 FRAArmindo FonsecaFRAFortuneo - Vital Concept04:45:36  +  00:31:28=30,672 
141141 NEDDylan GroenewegenNLDTeam Lotto NL - Jumbo04:45:36  +  00:31:28=30,672 
142142 ESPMarkel IrizarUSATrek - Segafredo04:45:36  +  00:31:28=30,672 
143143 FRAJérémy RoyFRAFDJ04:45:36  +  00:31:28=30,672 
144144 ITADomenico PozzovivoFRAAg2r La Mondiale04:45:36  +  00:31:28=30,672 
145145 UKRAndriy GrivkoKAZAstana Pro Team04:45:36  +  00:31:28=30,672 
146146 GERAndré GreipelBELLotto Soudal04:45:36  +  00:31:28=30,672 
147147 FRABrice FeilluFRAFortuneo - Vital Concept04:45:36  +  00:31:28=30,672 
148148 NEDRoy CurversDEUTeam Giant Alpecin04:45:36  +  00:31:28=30,672 
149149 ESPÁngel ViciosoRUSTeam Katusha04:45:36  +  00:31:28=30,672 
150150 BELSam BennettDEUBora-Argon 1804:45:36  +  00:31:28=30,672 
151151 GERAndreas SchillingerDEUBora-Argon 1804:45:36  +  00:31:28=30,672 
152152 URSRamunas NavardauskasUSATeam Cannondale Drapac04:45:36  +  00:31:28=30,672 
153153 IRLChristopher Juul JensenAUSORICA BikeExchange04:45:36  +  00:31:28=30,672 
154154 FRAArthur VichotFRAFDJ04:45:36  +  00:31:28=30,672 
155155 FRAAnthony RouxFRAFDJ04:45:36  +  00:31:28=30,672 
156156 RSAReinardt Janse Van RensburgZAFDimension Data04:45:36  +  00:31:28=30,672 
157157 BELMaarten WynantsNLDTeam Lotto NL - Jumbo04:45:36  +  00:31:28=30,672 
158158 ITADavide CimolaiITALampre-Merida04:45:36  +  00:31:28=30,672 
159159 AUTMarco HallerRUSTeam Katusha04:45:36  +  00:31:28=30,672 
160160 FRAYohann GèneFRADirect Energie04:45:36  +  00:31:28=30,672 
161161 ITAJacopo GuarnieriRUSTeam Katusha04:45:36  +  00:31:28=30,672 
162162 POLMaciej BodnarRUSTinkoff04:45:36  +  00:31:28=30,672 
163163 FRAAdrien PetitFRADirect Energie04:45:36  +  00:31:28=30,672 
164164 NOREdvald Boasson HagenZAFDimension Data04:45:36  +  00:31:28=30,672 
165165 NZLGregory HendersonBELLotto Soudal04:45:36  +  00:31:28=30,672 
166166 JPNYukiya ArashiroITALampre-Merida04:45:36  +  00:31:28=30,672 
167167 ENGStephen CummingsZAFDimension Data04:45:36  +  00:31:28=30,672 
168168 DENLars BakBELLotto Soudal04:45:36  +  00:31:28=30,672 
169169 GERMarcel SiebergBELLotto Soudal04:45:52  +  00:31:44=30,644 
170170 AUTBernhard EiselZAFDimension Data04:45:52  +  00:31:44=30,644 
171171 FRACyril LemoineFRACofidis – Solutions Crédits04:45:52  +  00:31:44=30,644 
172172 SVKPeter SaganRUSTinkoff04:45:52  +  00:31:44=30,644 
173173 GERJohn DegenkolbDEUTeam Giant Alpecin04:45:52  +  00:31:44=30,644 
174174 BRAMaximilano RichezeBELEtixx - Quick Step04:45:55  +  00:31:47=30,638 
175175 ENGDaniel McLayFRAFortuneo - Vital Concept04:49:47  +  00:35:39=30,229 

Withdrawls: 2
 
Rider
Team
Reason
114  NEDTom DumoulinDEUTeam Giant AlpecinDid not finish
191  ESPDaniel NavarroFRACofidis – Solutions CréditsDid not finish
Todays birthdays.

1878  Jean Novo
1883  Jules Chabas
1890  Ange Aubry
1893  Roger Marye
1913  Paul Maye
1914  Lucien Vlaemynck
1915  Alphonse Antoine
1932  Rolf Graf
1953  Julio Rubiano
1959  Jos Haex
1959  Gerard Veldscholten
1963  Pablo Moreno
1964  Juan Castillo
1977  Iban Mayo
1994  Fernando Gaviria